Location: Cabrera Baja
(40.4089°N, 4.3354°W)
Time: 02:57:57
(UTC+00:00)

Cosmos 1536 - Pass Details

Date: 14 July 2020
Orbit: 540 x 559 km, 82.5° (Epoch: 03 August)

Event Time Altitude Azimuth Distance (km) Brightness Sun altitude
Exits shadow 02:03:04 29° 111° (ESE) 1,032 4.2 -23.8°
Maximum altitude 02:03:44 31° 91° (E) 990 4.3 -23.7°
Drops below altitude 10° 02:07:20 10° 29° (NNE) 1,846 6.6 -23.4°
Sets 02:09:40 0° 19° (NNE) 2,743 7.8 -23.2°
